{"data":{"norad_id":58225,"epoch":"2026-09-20T09:07:32.852640Z","epoch_age_seconds":153992,"freshness":"FRESH","line1":"1 58225U 23170V   26263.38024135  .00000290  00000+0  20081-4 0  9995","line2":"2 58225  43.0025  32.8013 0001438 269.7416  90.3271 15.27573076161740","mean_motion":15.27573076,"eccentricity":0.0001438,"inclination_deg":43.0025,"raan_deg":32.8013,"arg_perigee_deg":269.7416,"mean_anomaly_deg":90.3271,"bstar":2.0081e-5,"rev_number":16174,"period_min":94.267175994663,"perigee_km":482.08318752284,"apogee_km":484.05647060688,"semimajor_km":6861.2068290649,"source":"CELESTRAK","updated_at":"2026-09-21T09:00:33.835051Z"}}